Location: Tucson
(32.2217°N, 110.9265°W)
Time: 08:11:41
(UTC-07:00)

deb Explorer IX - Visible Passes

Search period start: 25 October 2021 00:00
Search period end: 04 November 2021 00:00
Orbit: 546 x 1089 km, 38.8° (Epoch: 24 October)

Date Brightness Start Highest point End Pass type
(mag) Time Alt. Az. Time Alt. Az. Time Alt. Az.
25 Oct ? 02:57:18 16° ENE 02:57:18 16° ENE 02:58:25 10° ENE visible
25 Oct ? 04:38:30 42° NW 04:39:42 47° N 04:45:23 10° ENE visible
26 Oct ? 04:15:16 47° N 04:15:16 47° N 04:20:55 10° ENE visible
26 Oct ? 05:56:33 10° WNW 06:02:52 57° NNE 06:08:16 10° E visible
27 Oct ? 03:52:01 40° NE 03:52:01 40° NE 03:56:25 10° ENE visible
27 Oct ? 05:33:13 17° WNW 05:38:14 58° NNE 05:43:49 10° E visible
28 Oct ? 03:28:47 29° NE 03:28:47 29° NE 03:31:53 10° ENE visible
28 Oct ? 05:09:59 27° NW 05:13:36 59° NNE 05:19:20 10° E visible
29 Oct ? 03:05:34 19° ENE 03:05:34 19° ENE 03:07:18 10° ENE visible
29 Oct ? 04:46:46 41° NW 04:48:55 59° NNE 04:54:50 10° E visible
30 Oct ? 02:42:22 12° ENE 02:42:22 12° ENE 02:42:43 10° ENE visible
30 Oct ? 04:23:34 57° N 04:24:12 59° NNE 04:30:18 10° E visible
30 Oct ? 06:05:02 10° WNW 06:11:28 60° SSW 06:17:00 10° SE visible
31 Oct ? 04:00:25 55° NE 04:00:25 55° NE 04:05:45 10° E visible
31 Oct ? 05:41:38 17° WNW 05:46:48 61° SSW 05:52:31 10° SE visible
01 Nov ? 03:37:19 37° ENE 03:37:19 37° ENE 03:41:09 10° E visible
01 Nov ? 05:18:31 28° WNW 05:22:06 62° SSW 05:27:58 10° SE visible
02 Nov ? 03:14:15 23° E 03:14:15 23° E 03:16:31 10° E visible
02 Nov ? 04:55:28 45° W 04:57:22 63° SSW 05:03:26 10° SE visible
03 Nov ? 02:51:15 13° E 02:51:15 13° E 02:51:52 10° E visible
03 Nov ? 04:32:27 64° SW 04:32:37 64° SSW 04:38:50 10° SE visible
03 Nov ? 06:14:57 10° W 06:18:54 17° SW 06:22:34 10° S visible
